STARLINK-11652, 63315

Orbit data source: Space-Track

STARLINK-11652, 63315 is a payload satellite owned by SpaceX/Seattle (US) in LEO that was launched on Tue, 18 Mar 2025 UTC via an FALCON 9 launch vehicle from the Air Force Eastern Test Range (AFETR). Payload-class satellites include a variety of spacecraft equipped with specific instruments for various scientific and technological missions. These include communications satellites like Starlink; space stations such as the ISS; scientific satellites like the Hubble; Earth observation satellites from companies like Planet Labs, Umbra, and HawkEye 360; GPS; miniature CubeSats for education and research; and military/defense satellites.

Loading next visibility...
Identifier
63315, 2025-057J
Orbit
LEO
Country
Flag of USUS
Related business
Manufacturer
SpaceX/Seattle
Mission
Operational Commercial Communications
Bus & Motor
STARLINK V2MD, Unknown motor
Mass
960 kg wet, ~910 kg dry
Launch date (UTC)
2025-03-18 (9 months ago)
Launch vehicle
FALCON 9
Launch site
Air Force Eastern Test Range (AFETR)
Object type
Payload
Rocket body
Debris
Shape & HBR
Box + 2 Pan, 18.1 m
Radar Cross Section
36.964 m², Large (>1 m²)

Expand to show TLE details & history
Last TLE update: 19 hours ago

TLE from 19 hours ago
0 STARLINK-11652
1 63315U 25057J   25347.25288701  .00599830  00000-0  42936-2 0  9991
2 63315  42.9996  65.5149 0003110 244.4871 115.5676 15.71149211 43611
Epoch: 2025-12-13T06:04Z
TLE epoch observation values (Epoch: 2025-12-13T06:04:09.437Z)
Latitude
0.00002°
Longitude
-107.70721°
Altitude
356.287 km
Speed
7.697 km/s
True Right ascension
04h 22m 03s
True Declination
0° 00' 00"
Sunlit
Object was in full shadow at epoch
Visualization orbit readout
Latitude
Unknown
Longitude
Unknown
Altitude
Unknown
Speed
Unknown
Apparent Right ascension
Unknown
Apparent Declination
Unknown
Sunlit
N/A
Visualization observer readout
Local Sidereal Time
23:32:34
Azimuth
Unknown
Elevation
Unknown
Doppler factor
Unknown
Orbital elements
Apogee altitude
359.688 km
Perigee altitude
355.499 km
Semi-major axis
6,735.73 km
Eccentricity
0.00031
Inclination
42.9996°
RAAN
65.5149°
Arg. of periapsis
244.4871°
True anomaly
115.59974°
Mean anomaly
115.5676°
Eccentric anomaly
115.58367°
Mean motion
3.92614 °/min
Orbital period
91.69 mins
BSTAR
0.0042936
Loading maneuver chart data...
Computing Atmospheric mass density...
Loading historical data...
Loading historical data...
Loading historical data...
Loading historical data...
Loading historical data...
Loading historical data...
Loading historical data...

Documentation

Showing up to 5 results
|